Home   Weather   Bursa   Past weeks

Flag for Turkey Past Weather in Bursa, Turkey — Yesterday and Last 2 Weeks

54 °F

Passing clouds.

Feels Like: 52 °F
Forecast: 53 / 61 °F
Wind: 9 mph from Northeast

Location: Bursa

Current Time: Oct 28, 2016 at 12:04:06 AM

Latest Report: Oct 27, 2016 at 11:00 PM

Visibility: 9 mi

Pressure: 30.28 "Hg

Humidity: 84%

Dew Point: 49 °F

Location of BursaLocation

Past Weather in Bursa — Graph


Bursa Temperature Yesterday

Maximum temperature yesterday: 62 °F (at 3:00 PM)
Minimum temperature yesterday: 46 °F (at 6:00 AM)
Average temperature yesterday: 55 °F

High & Low Weather Summary for the Past Weeks

High76 °F (Oct 22, 3:00 PM)99% (Oct 13, 6:00 AM)30.36 "Hg (Oct 13, 6:00 AM)
Low41 °F (Oct 20, 5:00 AM)40% (Oct 19, 4:00 PM)29.84 "Hg (Oct 12, 10:00 PM)
Average59 °F73%30.16 "Hg
* Reported Oct 12 10:00 PM — Oct 27 10:00 PM, Bursa, Weather by CustomWeather, © 2016

Note: Actual official high and low records may vary slightly from our data, if they occured in-between our weather recording intervals... More about our weather records


Bursa Weather History for the Previous 24 Hours

Scroll right to see more
Time TempWeatherWind HumidityBarometerVisibility
10:00 PM
Thu, Oct 27
55 °FPassing clouds.9 mph82%30.27 "Hg9 mi
9:00 PM56 °FPassing clouds.9 mph80%30.27 "Hg9 mi
8:00 PM57 °FPassing clouds.12 mph78%30.26 "Hg9 mi
7:00 PM59 °FPassing clouds.8 mph69%30.24 "Hg9 mi
6:00 PM60 °FPartly sunny.10 mph67%30.23 "Hg9 mi
5:00 PM61 °FPartly sunny.12 mph64%30.22 "Hg7 mi
4:00 PM62 °FPartly sunny.7 mph64%30.19 "Hg6 mi
3:00 PM62 °FPartly sunny.7 mph61%30.20 "Hg6 mi
2:00 PM61 °FPartly sunny.6 mph64%30.20 "Hg6 mi
1:00 PM62 °FPartly sunny.5 mph65%30.19 "Hg6 mi
12:00 PM60 °FPartly sunny.3 mph69%30.19 "Hg6 mi
11:00 AM58 °FFog.2 mph75%30.19 "Hg4 mi
10:00 AM54 °FFog.2 mph82%30.19 "Hg4 mi
9:00 AM51 °FFog.1 mph91%30.17 "Hg4 mi
8:00 AM50 °FFog.1 mph92%30.15 "Hg4 mi
7:00 AM49 °FPassing clouds.1 mph93%30.14 "Hg6 mi
6:00 AM46 °FPassing clouds.No wind93%30.13 "Hg6 mi
5:00 AM48 °FPassing clouds.3 mph93%30.11 "Hg6 mi
4:00 AM49 °FPassing clouds.1 mph90%30.10 "Hg6 mi
3:00 AM49 °FPassing clouds.1 mph89%30.11 "Hg7 mi
2:00 AM49 °FPassing clouds.No wind88%30.11 "Hg7 mi
1:00 AM52 °FPassing clouds.1 mph85%30.10 "Hg7 mi
12:00 AM54 °FPassing clouds.3 mph79%30.10 "Hg7 mi
Weather by CustomWeather, © 2016

See weather overviewHow to use our weather pages